Stations météo

Publicité
Düsseldorf, Allemagne (10400): Température de l'air & dewpoint: 12.09.2018 18:00:00 - 18.09.2018 18:00:00 (CEST)Düsseldorf, Allemagne (10400): Température de l'air 5cm & Température de l'air -5cm: 12.09.2018 18:00:00 - 18.09.2018 18:00:00 (CEST)Düsseldorf, Allemagne (10400): Température de l'air -20cm & Température de l'air -100cm: 12.09.2018 18:00:00 - 18.09.2018 18:00:00 (CEST)Düsseldorf, Allemagne (10400): Vitesse du vent & gusts: 12.09.2018 18:00:00 - 18.09.2018 18:00:00 (CEST)Düsseldorf, Allemagne (10400): Direction du vent: 12.09.2018 18:00:00 - 18.09.2018 18:00:00 (CEST)Düsseldorf, Allemagne (10400): reduced air pressure: 12.09.2018 18:00:00 - 18.09.2018 18:00:00 (CEST)Düsseldorf, Allemagne (10400): visibility: 12.09.2018 18:00:00 - 18.09.2018 18:00:00 (CEST)Düsseldorf, Allemagne (10400): Ensoleillement: 12.09.2018 18:00:00 - 18.09.2018 18:00:00 (CEST)Düsseldorf, Allemagne (10400): Quantités de précipitations: 12.09.2018 18:00:00 - 18.09.2018 18:00:00 (CEST)
Date & Time tt [°C] td [°C] tt 5cm [°C] tt -5cm [°C] tt -20cm [°C] tt -100cm [°C] ff [km/h] ff [knt] fx [km/h] fx [knt] dd ppp [hPa] vv [km] sd [min] rr [mm]
18.09.2018 18:00:00 29,2 10,8 29,3 27,2 22,3 18,2 31 17 49 27 WSW 1012,2 10 60 0,0
18.09.2018 17:00:00 30,1 9,8 31,3 28,1 21,9 18,2 29 16 42 23 WSW 1011,9 10 60 0,0
18.09.2018 16:00:00 31,1 8,9 33,1 28,2 21,3 18,2 29 16 45 24 SW 1011,5 50 60 0,0
18.09.2018 15:00:00 31,8 10,4 33,9 27,6 20,5 18,2 32 17 41 22 SW 1011,5 50 60 0,0
18.09.2018 14:00:00 30,2 11,7 32,9 26,6 19,7 18,2 25 14 44 24 SW 1011,7 50 59 0,0
18.09.2018 13:00:00 29,7 14,5 32,0 25,0 18,9 18,2 30 16 42 23 SSW 1012,0 50 60 0,0
18.09.2018 12:00:00 27,3 11,7 29,8 22,6 18,3 18,2 21 11 35 19 S 1012,3 10 60 0,0
18.09.2018 11:00:00 24,6 10,8 26,3 20,3 17,9 18,2 25 14 38 21 SSE 1012,3 50 60 0,0
18.09.2018 10:00:00 22,2 10,1 22,9 18,3 17,7 18,2 22 12 42 23 SSE 1012,2 10 60 0,0
18.09.2018 09:00:00 20,0 9,3 19,8 17,1 17,6 18,2 28 15 40 21 SSE 1012,4 10 60 0,0
18.09.2018 08:00:00 18,8 8,9 17,7 16,5 17,7 18,2 30 16 44 24 SSE 1012,4 50 0 0,0
18.09.2018 07:00:00 18,8 8,9 17,3 16,5 17,8 18,2 26 14 39 21 SSE 1012,3 10 0 0,0
18.09.2018 06:00:00 18,7 8,9 17,1 16,6 18,0 18,2 24 13 37 20 SSE 1012,7 10 0 0,0
18.09.2018 05:00:00 18,4 8,9 17,0 16,7 18,1 18,2 24 13 36 19 SSE 1013,1 55 0 0,0
18.09.2018 04:00:00 18,5 9,2 17,0 16,8 18,3 18,1 24 13 35 19 SSE 1013,4 50 0 0,0
18.09.2018 03:00:00 18,4 9,2 16,7 16,9 18,5 18,1 22 12 35 19 SSE 1013,8 50 0 0,0
18.09.2018 02:00:00 18,4 9,0 16,6 17,1 18,7 18,2 21 11 29 16 SSE 1014,2 10 0 0,0
18.09.2018 01:00:00 19,0 8,3 17,1 17,3 19,0 18,2 18 10 30 16 SSE 1014,6 50 0 0,0
18.09.2018 00:00:00 18,2 7,4 15,4 17,5 19,3 18,2 18 10 27 15 SSE 1015,0 10 0 0,0
17.09.2018 23:00:00 19,1 7,7 14,9 17,9 19,7 18,2 13 7 20 11 SSE 1015,3 50 0 0,0
17.09.2018 22:00:00 16,7 9,7 10,8 18,7 20,2 18,2 8 4 13 7 ESE 1015,5 10 0 0,0
17.09.2018 21:00:00 19,1 8,7 13,3 19,9 20,5 18,2 5 3 11 6 ENE 1015,5 10 0 0,0
17.09.2018 20:00:00 20,5 8,4 16,2 21,6 20,8 18,2 8 4 9 5 NE 1015,7 55 27 0,0
17.09.2018 19:00:00 23,7 7,8 21,3 23,6 20,8 18,2 8 4 13 7 E 1015,9 10 17 0,0
17.09.2018 18:00:00 25,7 7,4 27,2 25,1 20,6 18,2 7 4 13 7 ESE 1016,4 50 60 0,0
17.09.2018 17:00:00 25,7 7,8 27,6 25,8 20,1 18,2 8 4 21 11 - 1017,0 10 60 0,0
17.09.2018 16:00:00 25,5 7,5 28,1 26,0 19,5 18,2 13 7 22 12 SSW 1017,7 10 60 0,0
17.09.2018 15:00:00 24,9 7,4 27,9 25,6 18,7 18,2 13 7 23 13 SW 1018,3 10 60 0,0
17.09.2018 14:00:00 23,7 9,5 27,6 24,3 17,8 18,2 13 7 25 14 S 1018,9 50 60 0,0
17.09.2018 13:00:00 22,9 9,3 26,7 22,1 17,1 18,2 11 6 19 10 S 1019,4 10 60 0,0
17.09.2018 12:00:00 21,0 11,0 24,0 19,8 16,4 18,2 11 6 16 9 S 1020,0 10 60 0,0
17.09.2018 11:00:00 19,2 9,8 21,2 17,4 16,0 18,2 8 5 15 8 SSE 1020,3 35 60 0,0
17.09.2018 10:00:00 16,5 9,0 17,8 15,3 15,8 18,2 13 7 18 10 S 1020,6 10 60 0,0
17.09.2018 09:00:00 14,7 8,3 14,6 13,9 15,9 18,2 8 4 22 12 SSE 1020,9 10 43 0,0
17.09.2018 08:00:00 13,2 8,3 11,8 13,3 16,1 18,2 18 10 25 14 SSE 1020,3 10 0 0,0
17.09.2018 07:00:00 12,4 8,2 10,5 13,2 16,3 18,2 16 9 24 13 SSE 1020,0 10 0 0,0
17.09.2018 06:00:00 12,3 8,4 7,2 13,4 16,6 18,2 10 5 14 8 SSE 1020,3 50 0 0,0
17.09.2018 05:00:00 12,7 8,7 8,8 13,6 16,9 18,2 5 3 13 7 SSE 1019,8 50 0 0,0
17.09.2018 04:00:00 9,6 8,7 5,5 14,1 17,2 18,2 2 1 5 3 E 1020,0 50 0 0,0
17.09.2018 03:00:00 11,0 9,5 7,6 14,6 17,5 18,2 4 2 9 5 E 1020,0 50 0 0,0
17.09.2018 02:00:00 9,6 8,4 7,9 15,1 17,9 18,2 5 3 8 4 E 1020,1 10 0 0,0
17.09.2018 01:00:00 11,8 10,4 10,0 15,7 18,3 18,2 3 2 8 4 NNW 1020,0 50 0 0,0
17.09.2018 00:00:00 12,0 10,0 7,7 16,4 18,6 18,2 3 2 11 6 ESE 1020,2 50 0 0,0
16.09.2018 23:00:00 13,7 10,5 10,7 17,3 19,0 18,2 5 3 5 3 ENE 1020,1 55 0 0,0
16.09.2018 22:00:00 15,2 10,3 10,8 18,0 19,3 18,3 4 2 8 4 - 1019,9 10 0 0,0
16.09.2018 21:00:00 15,5 10,6 11,6 19,0 19,6 18,3 4 2 8 4 - 1019,9 10 0 0,0
16.09.2018 20:00:00 18,6 9,9 13,6 20,4 19,8 18,3 5 3 8 4 NE 1019,6 60 5 0,0
16.09.2018 19:00:00 22,3 8,2 20,9 22,2 19,8 18,3 5 3 13 7 N 1019,6 60 7 0,0
16.09.2018 18:00:00 22,5 8,7 22,3 23,4 19,6 18,3 4 2 16 9 SSE 1019,5 60 0 0,0
16.09.2018 17:00:00 22,7 8,3 23,9 24,4 19,2 18,3 8 4 22 12 - 1020,0 10 38 0,0
16.09.2018 16:00:00 22,8 8,0 25,0 24,5 18,6 18,3 11 6 22 12 SSW 1020,6 60 52 0,0
16.09.2018 15:00:00 22,3 7,3 26,0 23,9 17,8 18,3 9 5 27 15 - 1021,4 10 60 0,0
16.09.2018 14:00:00 21,7 7,7 24,6 22,3 17,1 18,3 11 6 26 14 SSW 1022,2 10 57 0,0
16.09.2018 13:00:00 22,0 9,2 25,3 21,1 16,3 18,3 15 8 25 14 S 1022,7 10 60 0,0
16.09.2018 12:00:00 19,9 9,2 22,3 18,6 15,7 18,4 16 9 24 13 S 1023,2 10 60 0,0
16.09.2018 11:00:00 18,4 9,2 20,6 16,4 15,3 18,4 13 7 22 12 S 1023,5 10 60 0,0
16.09.2018 10:00:00 15,0 8,4 16,1 14,2 15,1 18,4 16 9 31 17 SSE 1023,8 10 60 0,0
16.09.2018 09:00:00 13,1 7,8 12,9 12,9 15,2 18,4 18 10 29 16 SSE 1023,8 10 60 0,0
16.09.2018 08:00:00 11,5 7,8 10,4 12,4 15,4 18,4 17 9 26 14 SSE 1023,9 45 3 0,0
16.09.2018 07:00:00 11,5 7,9 10,0 12,5 15,6 18,4 15 8 24 13 SSE 1023,7 10 0 0,0
16.09.2018 06:00:00 11,5 8,0 10,0 12,7 15,8 18,4 16 9 24 13 SSE 1023,7 30 0 0,0
16.09.2018 05:00:00 11,8 8,2 9,7 12,8 16,0 18,4 15 8 24 13 SSE 1023,9 30 0 0,0
16.09.2018 04:00:00 10,3 8,4 6,7 13,1 16,3 18,4 9 5 13 7 SE 1024,3 10 0 0,0
16.09.2018 03:00:00 10,5 9,3 6,9 13,5 16,6 18,4 4 2 8 4 ENE 1024,9 30 0 0,0
16.09.2018 02:00:00 9,8 8,5 7,6 14,0 16,9 18,4 4 2 8 4 SSE 1025,5 30 0 0,0
16.09.2018 01:00:00 10,5 9,2 8,3 14,4 17,2 18,4 7 4 8 4 ESE 1025,6 30 0 0,0
16.09.2018 00:00:00 11,4 9,5 8,2 14,9 17,5 18,4 4 2 9 5 - 1025,6 10 0 0,0
15.09.2018 23:00:00 12,9 9,8 9,7 15,6 17,8 18,4 5 3 9 5 E 1025,6 10 0 0,0
15.09.2018 22:00:00 13,2 9,6 9,8 16,1 18,1 18,5 4 2 8 4 E 1025,5 10 0 0,0
15.09.2018 21:00:00 12,9 9,4 9,3 16,9 18,4 18,5 2 1 2 1 NE 1025,0 10 0 0,0
15.09.2018 20:00:00 15,4 9,3 11,0 18,2 18,6 18,5 0 0 11 6 N 1024,7 40 0 0,0
15.09.2018 19:00:00 18,6 8,8 17,8 19,5 18,6 18,5 11 6 21 11 WNW 1024,4 10 10 0,0
15.09.2018 18:00:00 18,7 8,4 18,2 20,3 18,5 18,5 13 7 28 15 W 1024,4 50 0 0,0
15.09.2018 17:00:00 20,6 7,7 22,9 21,0 18,3 18,5 18 10 29 15 W 1024,3 50 11 0,0
15.09.2018 16:00:00 19,2 8,3 19,6 20,1 18,1 18,5 5 3 24 13 NNW 1024,3 10 0 0,0
15.09.2018 15:00:00 19,1 8,5 20,1 21,2 17,7 18,5 15 8 29 16 W 1024,4 10 13 0,0
15.09.2018 14:00:00 19,6 8,9 24,2 21,1 17,1 18,5 16 9 29 16 W 1024,3 10 36 0,0
15.09.2018 13:00:00 19,3 9,6 23,2 19,5 16,6 18,5 23 12 34 18 WSW 1024,4 40 41 0,0
15.09.2018 12:00:00 16,9 11,4 18,8 17,3 16,2 18,5 10 5 25 14 W 1024,5 35 17 0,0
15.09.2018 11:00:00 16,2 11,4 18,8 16,4 16,0 18,5 16 9 23 12 SW 1024,3 40 18 0,0
15.09.2018 10:00:00 14,3 10,5 14,8 14,8 15,9 18,6 16 8 28 15 SW 1024,0 50 33 0,0
15.09.2018 09:00:00 13,3 9,7 13,6 14,0 15,9 18,6 16 9 24 13 SSW 1023,3 10 60 0,0
15.09.2018 08:00:00 12,0 9,3 11,0 13,7 16,1 18,6 14 8 23 13 SSW 1022,7 50 1 0,0
15.09.2018 07:00:00 12,8 9,2 12,2 14,0 16,2 18,6 16 9 24 13 SW 1022,4 10 0 0,0
15.09.2018 06:00:00 13,0 8,9 12,3 13,9 16,4 18,6 16 9 26 14 SW 1022,0 10 0 0,0
15.09.2018 05:00:00 12,8 8,9 11,9 13,7 16,6 18,6 17 9 23 13 SSW 1021,8 50 0 0,0
15.09.2018 04:00:00 10,6 7,7 6,9 13,7 16,9 18,6 13 7 16 9 SSW 1021,9 50 0 0,0
15.09.2018 03:00:00 11,0 7,8 6,3 14,2 17,2 18,6 13 7 14 8 SW 1021,9 10 0 0,0
15.09.2018 02:00:00 12,6 8,5 7,3 15,2 17,4 18,6 9 5 11 6 SW 1021,7 50 0 0,0
15.09.2018 01:00:00 14,1 8,8 12,8 15,8 17,6 18,6 9 5 15 8 SW 1021,4 10 0 0,0
15.09.2018 00:00:00 15,6 8,2 14,6 15,9 17,9 18,6 13 7 18 10 W 1021,4 10 0 0,0
14.09.2018 23:00:00 14,3 8,8 9,0 15,9 18,2 18,7 7 4 9 5 W 1021,0 50 0 0,0
14.09.2018 22:00:00 15,4 8,7 11,3 16,6 18,5 18,7 8 4 13 7 W 1020,7 50 0 0,0
14.09.2018 21:00:00 14,5 8,0 8,8 17,2 18,9 18,7 5 3 11 6 W 1020,4 10 0 0,0
14.09.2018 20:00:00 17,1 7,3 12,7 18,7 19,1 18,7 9 5 21 11 W 1020,0 10 3 0,0
14.09.2018 19:00:00 18,9 6,4 18,2 20,1 19,2 18,7 15 8 26 14 W 1019,9 10 3 0,0
14.09.2018 18:00:00 19,5 6,1 19,8 21,8 19,1 18,7 16 9 31 17 W 1019,8 10 0 0,0
14.09.2018 17:00:00 20,4 5,6 22,1 22,7 18,7 18,7 18 10 29 16 WSW 1019,8 10 28 0,0
14.09.2018 16:00:00 19,4 6,2 20,7 22,5 18,3 18,7 20 11 31 17 WSW 1019,9 40 43 0,0
14.09.2018 15:00:00 19,4 7,9 22,8 22,2 17,7 18,8 18 10 29 16 W 1020,3 40 45 0,0
14.09.2018 14:00:00 19,6 7,1 23,3 21,6 17,0 18,8 14 7 28 15 SSW 1020,7 40 42 0,0
14.09.2018 13:00:00 18,4 8,2 22,2 20,5 16,3 18,8 11 6 21 11 SSW 1021,3 25 60 0,0
14.09.2018 12:00:00 17,1 9,8 19,9 18,2 15,6 18,8 9 5 18 10 SW 1021,6 10 60 0,0
14.09.2018 11:00:00 15,6 9,6 17,5 15,9 15,2 18,8 8 4 13 7 SSW 1021,8 10 60 0,0
14.09.2018 10:00:00 13,7 10,1 13,8 14,0 15,0 18,8 8 4 11 6 S 1021,6 10 60 0,0
14.09.2018 09:00:00 11,9 10,3 11,5 12,3 15,0 18,8 6 4 13 7 S 1021,4 9 27 0,0
14.09.2018 08:00:00 9,9 8,9 8,7 11,3 15,3 18,8 7 4 11 6 SSE 1021,3 10 0 0,0
14.09.2018 07:00:00 7,2 6,6 4,9 11,3 15,6 18,8 7 4 11 6 SE 1021,1 20 0 0,0
14.09.2018 06:00:00 7,1 6,6 3,8 11,6 15,9 18,8 5 3 5 3 E 1021,1 30 0 0,0
14.09.2018 05:00:00 6,6 6,0 3,9 12,0 16,2 18,8 2 1 5 3 NNE 1021,2 30 0 0,0
14.09.2018 04:00:00 7,9 7,4 4,8 12,5 16,6 18,8 4 2 5 3 NNW 1021,4 25 0 0,0
14.09.2018 03:00:00 8,4 7,7 5,1 13,0 17,0 18,8 2 1 4 2 N 1021,6 30 0 0,0
14.09.2018 02:00:00 9,1 8,3 5,1 13,6 17,3 18,8 4 2 5 3 NNE 1021,8 30 0 0,0
14.09.2018 01:00:00 9,9 8,9 6,1 14,3 17,7 18,8 4 2 4 2 - 1021,9 10 0 0,0
14.09.2018 00:00:00 11,1 10,3 9,1 14,9 18,1 18,8 4 2 8 4 N 1021,5 20 0 0,0
13.09.2018 23:00:00 12,2 11,2 8,5 15,6 18,4 18,8 5 3 8 4 NE 1021,3 10 0 0,0
13.09.2018 22:00:00 12,4 10,4 8,7 16,6 18,8 18,8 4 2 8 4 NE 1021,2 10 0 0,0
13.09.2018 21:00:00 15,0 11,4 13,0 17,5 19,0 18,8 2 1 8 4 - 1020,8 10 0 0,0
13.09.2018 20:00:00 16,4 11,3 14,6 18,5 19,2 18,8 5 3 15 8 E 1020,4 10 4 0,0
13.09.2018 19:00:00 17,3 10,6 15,7 19,7 19,2 18,8 5 3 11 6 ENE 1020,2 10 29 0,0
13.09.2018 18:00:00 18,4 10,1 19,6 20,3 19,1 18,8 4 2 15 8 - 1020,3 10 1 0,0
13.09.2018 17:00:00 17,9 10,5 19,7 20,7 18,9 18,8 9 5 15 8 NNE 1020,5 10 14 0,0
13.09.2018 16:00:00 17,7 10,8 19,1 20,7 18,6 18,8 11 6 16 9 NNE 1020,8 25 1 0,0
13.09.2018 15:00:00 17,4 11,1 19,6 20,5 18,2 18,8 10 5 20 11 NNE 1021,2 22 16 0,0
13.09.2018 14:00:00 16,9 11,8 19,3 19,0 18,0 18,8 11 6 20 11 NNE 1021,4 10 1 0,0
13.09.2018 13:00:00 15,9 11,9 17,2 18,2 17,8 18,8 13 7 22 12 NNE 1021,7 10 0 0,0
13.09.2018 12:00:00 15,3 12,1 15,9 17,5 17,7 18,8 13 7 18 10 NNE 1021,9 15 0 0,0
13.09.2018 11:00:00 14,5 12,0 14,9 17,0 17,6 18,8 13 7 21 11 NNE 1021,7 13 0 0,0
13.09.2018 10:00:00 13,9 12,2 14,3 16,4 17,6 18,8 11 6 16 9 NNE 1021,5 9 0 0,0
13.09.2018 09:00:00 13,4 12,1 13,3 15,9 17,7 18,8 13 7 18 10 N 1021,2 8 0 0,0
13.09.2018 08:00:00 13,2 12,0 13,0 15,9 17,9 18,8 11 6 16 9 NNE 1021,1 8 0 0,0
13.09.2018 07:00:00 13,4 12,2 13,1 16,0 18,0 18,8 8 5 18 10 N 1021,0 8 0 0,0
13.09.2018 06:00:00 13,4 12,5 13,2 16,1 18,2 18,8 9 5 16 9 N 1021,0 8 0 0,2
13.09.2018 05:00:00 13,4 12,2 13,0 16,3 18,4 18,8 9 5 15 8 NNE 1021,0 8 0 0,3
13.09.2018 04:00:00 13,6 12,7 13,2 16,6 18,6 18,8 11 6 15 8 NNE 1021,2 9 0 1,0
13.09.2018 03:00:00 14,0 12,4 13,4 17,1 18,8 18,8 9 5 18 10 N 1021,8 11 0 0,3
13.09.2018 02:00:00 14,7 12,1 14,1 17,4 19,0 18,8 13 7 18 10 NNE 1021,8 10 0 0,0
13.09.2018 01:00:00 15,1 12,6 14,9 17,6 19,2 18,8 9 5 15 8 N 1022,2 10 0 0,0
13.09.2018 00:00:00 15,2 12,6 15,0 17,9 19,4 18,7 8 4 13 7 N 1022,3 10 0 0,0
12.09.2018 23:00:00 15,1 12,6 15,0 18,2 19,6 18,7 9 5 16 9 N 1022,3 10 0 0,0
12.09.2018 22:00:00 15,3 12,6 15,1 18,5 19,8 18,7 9 5 18 10 N 1022,3 30 0 0,0
12.09.2018 21:00:00 15,3 12,5 15,2 18,9 20,1 18,7 15 8 24 13 N 1022,1 10 0 0,0
12.09.2018 20:00:00 15,2 13,0 15,3 19,5 20,4 18,7 15 8 25 14 NNE 1022,0 10 0 0,0
12.09.2018 19:00:00 15,2 12,9 15,4 20,3 20,6 18,7 15 8 34 18 NNE 1021,8 10 0 0,0
12.09.2018 18:00:00 15,4 12,5 16,1 21,1 20,8 18,7 22 12 34 18 N 1021,9 40 0 0,0

tt = Température de l'air
td = dewpoint
tt 5cm = Température de l'air 5cm
tt -5cm = Température de l'air -5cm
tt -20cm = Température de l'air -20cm
tt -100cm = Température de l'air -100cm
ff = Vitesse du vent
fx = gusts
dd = Direction du vent
ppp = reduced air pressure
vv = visibility
sd = Ensoleillement
rr = Quantités de précipitations

stations d'obs. à proximité